Dewpoint
56 57 58 59 60 60 61 63 65 65 67 68 70 69 69 70 71 72 73 74 75 75 76 77 77 77 77 76 77 77 77 77 76 76 75 75 74 74 74 74 73 73 71 70 70 68 69 68 68 67 68 69 68 68 69 69 69 69 69 69 69 68 69
54 55 56 57 59 61 63 64 65 65 66 68 69 70 69 71 71 71 72 74 75 75 76 76 77 77 76 77 77 77 78 77 77 77 76 75 75 74 74 74 74 74 73 71 70 70 70 69 68 68 68 69 68 69 68 69 69 69 68 69 68 68 68
54 55 56 57 59 60 63 64 65 65 66 66 67 68 68 71 72 72 73 73 75 75 75 76 77 76 76 77 77 77 77 77 77 77 76 75 75 74 75 75 74 73 72 72 71 70 70 70 69 69 68 68 67 68 69 69 69 69 68 69 69 67 68
55 55 57 59 61 62 63 64 65 64 64 65 66 67 69 71 72 73 73 73 74 75 75 76 76 76 76 77 77 77 77 78 77 77 76 75 75 75 75 75 74 73 72 71 71 70 69 69 69 69 69 68 68 67 68 68 68 68 68 69 67 68 68
54 55 57 58 59 61 62 63 64 66 64 64 66 69 70 70 71 72 72 73 72 74 74 75 75 76 76 77 76 77 77 78 77 77 76 75 76 76 75 73 73 73 72 72 71 70 70 69 68 68 68 69 67 67 68 68 67 68 68 69 67 66 66
53 56 57 57 58 60 62 62 62 62 63 63 66 68 68 68 68 68 70 73 73 73 75 75 76 76 76 76 76 76 77 78 78 77 76 76 76 75 74 74 73 73 72 72 70 69 69 68 67 68 67 66 65 65 66 67 66 66 67 68 67 66 64
54 57 57 58 58 59 60 62 61 61 63 63 64 67 67 66 66 67 67 70 70 73 73 73 75 75 76 76 76 77 77 77 77 76 76 76 76 75 75 74 74 72 72 72 70 69 68 68 67 68 68 66 66 65 66 67 66 66 66 67 67 66 66
56 58 59 59 58 57 58 61 61 61 62 64 64 64 65 65 66 66 66 66 68 68 70 70 74 76 77 76 76 77 77 76 76 76 75 75 75 75 74 74 73 73 72 70 70 69 66 68 67 68 68 66 66 66 66 67 67 65 65 66 66 66 65
55 58 58 56 57 56 57 61 62 63 65 66 65 67 67 66 65 66 66 66 67 67 68 68 71 75 77 76 76 77 76 76 75 74 73 74 74 72 72 72 73 72 71 70 68 69 67 67 67 68 69 68 66 67 67 67 67 66 65 65 66 65 64
57 59 61 58 57 55 58 60 64 66 66 67 67 68 68 67 67 66 66 65 66 67 67 68 69 73 76 76 76 75 75 75 74 73 72 71 72 71 71 70 72 72 71 69 66 68 69 68 68 69 69 68 67 67 67 67 67 66 65 66 66 66 65
57 61 62 60 59 59 60 61 65 67 68 69 69 68 70 69 68 67 67 66 65 66 67 68 70 72 75 75 74 74 75 75 74 73 72 71 70 70 69 69 69 70 69 68 66 69 70 69 69 69 69 67 66 66 67 66 67 66 65 65 66 66 65
61 61 63 62 61 61 62 65 67 69 70 71 70 70 71 71 69 68 68 68 67 66 68 69 69 70 73 72 73 74 74 75 74 73 72 71 70 69 69 70 69 68 67 68 66 67 67 69 69 69 69 68 67 67 66 67 67 66 66 65 65 66 65
61 62 63 61 63 63 66 67 69 70 71 71 70 71 71 70 69 68 70 70 68 68 69 71 71 72 73 72 72 74 74 75 74 73 71 71 71 71 69 68 67 66 65 65 65 65 65 66 67 68 68 68 68 66 66 66 66 67 67 67 66 66 66
63 60 62 63 64 65 66 68 70 71 72 71 70 71 71 70 69 70 71 70 70 68 68 69 72 73 73 72 72 73 74 75 74 73 72 71 72 71 70 69 69 68 67 67 65 64 64 63 66 66 67 67 68 67 67 67 67 68 68 67 66 66 66
59 58 61 61 65 66 67 68 70 71 71 71 71 71 71 71 71 72 72 71 72 69 69 72 73 74 73 73 73 73 74 74 74 73 73 72 73 72 72 70 70 69 68 68 65 63 62 63 63 66 67 67 68 68 67 66 66 66 65 66 67 67 66
56 56 57 61 64 65 67 68 70 70 71 71 71 71 70 71 72 71 71 71 70 71 71 73 75 75 74 73 73 73 73 71 73 73 73 72 72 72 72 70 70 68 68 67 65 66 66 65 64 64 66 67 68 68 67 67 66 65 63 64 66 66 66
57 55 56 61 64 65 67 68 69 70 70 71 71 71 71 72 72 72 70 70 70 72 71 73 75 74 73 73 73 73 73 71 71 73 73 73 72 72 72 71 70 69 69 68 67 67 68 67 66 65 66 66 66 67 67 67 66 64 62 62 63 66 65
55 59 58 60 63 65 66 67 69 69 70 69 71 72 72 72 72 72 71 71 70 71 71 73 74 74 74 73 73 72 72 72 71 71 73 73 73 72 72 72 70 70 70 69 69 69 68 68 68 68 66 66 66 66 67 67 65 62 61 62 61 63 66
56 59 60 63 64 65 65 65 67 69 69 69 70 71 71 72 72 72 72 72 72 72 72 73 73 74 74 74 73 72 72 72 71 71 71 73 73 72 72 71 70 70 69 68 69 69 69 69 69 69 68 67 67 66 66 66 64 61 60 60 60 60 63
57 58 59 60 63 64 66 66 67 68 68 70 70 69 71 72 72 72 72 71 72 73 73 74 74 73 73 73 72 72 72 72 71 71 71 72 73 72 72 71 71 69 68 68 69 69 69 68 68 69 69 68 68 67 66 66 63 59 58 58 58 59 61
60 60 61 62 64 64 66 67 68 69 68 68 67 69 69 71 71 72 71 71 72 73 74 75 74 73 73 73 72 71 71 71 71 71 71 71 72 72 71 71 70 70 67 66 67 68 68 67 69 69 69 67 66 67 66 66 60 57 57 56 56 57 59
57 59 60 61 66 66 67 66 67 67 69 68 67 68 69 70 70 69 70 72 73 73 74 74 74 73 72 72 72 71 71 71 71 71 71 71 71 71 71 70 69 69 68 68 67 67 66 68 68 68 68 67 67 65 65 64 59 57 57 56 55 57 63
48 57 59 63 63 64 68 68 69 69 71 69 68 68 69 69 69 70 70 71 71 73 73 73 74 73 73 72 71 70 70 70 70 70 71 71 70 70 70 69 69 68 67 66 63 64 66 67 65 67 67 67 67 67 66 65 63 57 56 55 55 57 63
48 55 57 60 64 65 69 69 68 71 68 69 69 68 68 68 69 70 71 71 71 71 72 72 73 73 73 72 71 70 70 70 70 70 70 70 71 70 70 70 69 68 67 64 64 64 64 67 68 68 67 65 66 64 64 65 62 55 54 54 55 59 64
51 53 58 62 65 67 67 69 70 68 69 68 67 68 70 70 70 70 71 71 70 71 72 73 73 73 73 72 71 70 70 70 71 70 70 70 70 70 70 69 68 68 68 67 66 64 67 66 65 66 67 66 66 68 65 64 61 54 53 54 54 60 65
60 62 64 66 65 66 68 69 68 67 68 69 71 71 71 70 70 71 71 71 71 71 72 73 73 74 74 73 71 70 70 71 71 71 70 71 70 70 68 68 67 66 66 66 63 62 64 64 63 66 65 66 65 64 65 65 66 69 54 52 53 56 65
60 60 60 58 61 68 70 70 69 69 70 73 73 72 71 71 72 72 73 73 72 72 73 74 74 74 73 72 70 70 70 70 70 70 70 70 70 69 67 67 66 66 68 67 64 64 65 66 66 66 65 65 65 68 67 64 66 71 53 52 52 55 58
62 63 65 69 70 68 66 66 70 72 72 74 73 72 73 73 74 74 74 73 73 74 73 74 74 73 72 71 70 70 70 70 70 70 70 70 70 69 67 68 68 67 66 66 66 66 66 67 66 66 65 66 68 65 66 68 67 66 57 52 52 52 54
68 67 67 68 69 69 69 70 70 70 72 73 73 74 74 74 74 74 73 72 74 74 74 74 73 72 72 71 70 71 70 70 70 70 70 69 70 69 67 67 67 67 69 68 68 67 66 68 67 66 65 66 66 66 67 69 69 63 67 52 51 50 52
66 66 66 65 66 68 68 69 70 71 72 72 73 73 73 73 72 72 72 74 75 74 74 74 73 71 70 70 70 70 70 70 70 70 70 69 69 68 67 67 67 68 68 67 67 66 66 67 67 67 65 64 65 66 66 67 69 63 62 61 52 50 49
66 67 67 68 68 70 70 70 71 70 71 72 73 73 73 73 72 72 74 74 74 73 73 73 72 71 69 70 70 71 70 69 70 69 69 69 68 67 68 67 67 67 68 67 66 66 66 66 66 66 66 64 66 68 67 68 68 66 64 61 56 51 49
67 68 68 69 70 70 70 71 70 70 70 71 71 72 72 72 72 73 74 73 72 72 72 72 71 70 68 70 70 69 69 69 68 69 69 69 68 68 69 68 67 67 66 66 66 67 66 67 67 64 65 66 65 65 65 65 64 63 64 62 61 56 52
69 70 71 72 72 71 71 71 69 69 69 68 69 69 70 72 72 72 71 70 70 71 71 71 69 69 68 69 69 69 69 69 68 68 69 69 68 69 68 68 66 66 66 64 65 67 67 63 64 67 66 65 64 63 65 63 62 63 62 63 63 62 60
70 70 72 72 72 71 71 70 69 69 68 68 68 69 69 69 68 69 69 68 68 69 70 70 68 68 67 67 67 68 68 68 68 68 67 68 67 67 67 66 66 65 65 64 65 64 63 63 63 63 63 63 62 62 62 62 62 62 59 58 59 59 63
70 71 71 72 73 73 72 72 71 71 70 69 69 69 68 66 65 65 66 66 67 69 69 67 67 67 66 66 66 67 68 67 67 67 67 68 68 64 60 63 66 65 66 67 68 70 64 63 65 64 63 62 63 62 62 62 62 62 53 61 49 61 62
69 69 69 70 70 71 72 72 72 71 70 70 70 69 68 66 66 65 63 65 67 68 69 68 66 65 63 64 64 63 64 66 65 66 66 65 63 61 57 50 42 47 65 63 52 48 44 49 67 66 62 60 64 63 63 60 61 48 47 45 45 45 44
67 66 66 67 68 70 71 71 71 72 71 70 70 69 68 67 65 66 65 67 67 67 68 67 65 63 60 62 61 62 64 65 65 65 66 65 64 63 61 59 54 42 41 46 46 43 39 40 42 45 49 60 63 56 47 48 44 43 42 41 42 43 44
65 64 64 65 67 68 69 70 71 71 70 70 70 69 68 66 66 67 65 66 66 67 67 66 65 63 61 60 65 66 65 64 65 65 64 64 64 63 62 61 59 55 43 39 41 41 39 38 39 40 44 44 51 59 56 46 40 40 40 40 40 40 39